START_TIME,STEP,MOV.,H8,t_acc.,H43,t_acc.,M25,t_acc.,H9,t_acc.
1981-08-25 00:00:30.510 ,1,0,0.,12.0,0.,12.0,0.,12.0,0.,12.0
1981-08-25 00:00:42.510 ,1,0,0.,12.0,0.,12.0,0.,12.0,0.,12.0
1981-08-25 00:00:54.510 ,0,0,0.,12.0,0.,12.0,0.,12.0,0.,12.0
1981-08-25 00:01:06.510 ,0,0,0.,12.0,0.,12.0,0.,12.0,0.,12.0
1981-08-25 00:01:18.510 ,0,0,0.,12.0,0.,12.0,0.,12.0,0.,12.0
1981-08-25 00:01:30.510 ,0,0,0.,12.0,0.,12.0,0.,12.0,0.,12.0
1981-08-25 00:01:42.510 ,0,0,0.,12.0,0.,12.0,0.,12.0,0.,12.0
1981-08-25 00:01:54.510 ,0,0,0.,12.0,0.,12.0,0.,12.0,0.,12.0
1981-08-25 00:02:06.510 ,0,0,0.,12.0,0.,12.0,0.,12.0,0.,12.0
1981-08-25 00:02:18.510 ,0,0,0.,12.0,0.,12.0,0.,12.0,0.,12.0
1981-08-25 00:02:30.510 ,1,0,0.,12.0,0.,12.0,0.,12.0,0.,12.0
1981-08-25 00:02:42.510 ,1,0,0.,12.0,0.,12.0,0.,12.0,0.,12.0
1981-08-25 00:02:54.510 ,1,0,0.,12.0,0.,12.0,0.,12.0,0.,12.0
1981-08-25 00:03:06.510 ,1,0,0.,12.0,0.,12.0,0.,12.0,0.,12.0
1981-08-25 00:03:18.510 ,2,0,0.,12.0,0.,12.0,0.,12.0,0.,12.0
1981-08-25 00:03:30.510 ,2,0,0.,12.0,0.,12.0,0.,12.0,0.,12.0
1981-08-25 00:03:42.510 ,2,0,0.,12.0,0.,12.0,0.,12.0,0.,12.0
1981-08-25 00:03:54.510 ,2,0,0.,12.0,0.,12.0,0.,12.0,0.,12.0
1981-08-25 00:04:06.510 ,3,0,0.,12.0,0.,12.0,0.,12.0,0.,12.0
1981-08-25 00:04:18.510 ,3,0,0.,12.0,0.,12.0,0.,12.0,0.,12.0
1981-08-25 00:04:30.510 ,3,0,0.,12.0,0.,12.0,0.,12.0,0.,12.0
1981-08-25 00:04:42.510 ,3,0,,0,,0,,0,,0
1981-08-25 00:04:54.510 ,4,0,0.,12.0,0.,12.0,0.,12.0,0.,12.0
1981-08-25 00:05:06.510 ,4,0,0.,12.0,0.,12.0,0.,12.0,0.,12.0
1981-08-25 00:05:18.510 ,4,0,0.,12.0,0.,12.0,0.,12.0,0.,12.0
1981-08-25 00:05:30.510 ,4,0,0.,12.0,0.,12.0,0.,12.0,0.,12.0
1981-08-25 00:05:42.510 ,5,0,0.,12.0,0.,12.0,0.,12.0,0.,12.0
1981-08-25 00:05:54.510 ,5,0,0.,12.0,0.,12.0,0.,12.0,0.,12.0
1981-08-25 00:06:06.510 ,5,0,0.,12.0,0.,12.0,0.,12.0,0.,12.0
1981-08-25 00:06:18.510 ,5,0,0.,12.0,0.,12.0,0.,12.0,0.,12.0
1981-08-25 00:06:30.510 ,6,0,0.,12.0,0.,12.0,0.,12.0,0.,12.0
1981-08-25 00:06:42.510 ,6,0,0.,12.0,0.,12.0,0.,12.0,0.,12.0
1981-08-25 00:06:54.510 ,6,0,0.,12.0,0.,12.0,0.,12.0,0.,12.0
1981-08-25 00:07:06.510 ,6,0,0.,12.0,0.,12.0,0.,12.0,0.,12.0
1981-08-25 00:07:18.510 ,7,0,0.,12.0,0.,12.0,0.,12.0,0.,12.0
1981-08-25 00:07:30.510 ,7,0,0.,12.0,0.,12.0,0.,12.0,0.,12.0
1981-08-25 00:07:42.510 ,7,0,0.,12.0,0.,12.0,0.,12.0,0.,12.0
1981-08-25 00:07:54.510 ,7,0,0.,12.0,0.,12.0,0.,12.0,0.,12.0
1981-08-25 00:08:06.510 ,7,0,0.,12.0,0.,12.0,0.,12.0,0.,12.0
1981-08-25 00:08:18.510 ,7,0,0.,12.0,0.,12.0,0.,12.0,0.,12.0
1981-08-25 00:08:30.510 ,7,0,0.,12.0,0.,12.0,0.,12.0,0.,12.0
1981-08-25 00:08:42.510 ,7,0,0.,12.0,0.,12.0,0.,12.0,0.,12.0
1981-08-25 00:08:54.510 ,6,0,0.,12.0,0.,12.0,0.,12.0,0.,12.0
1981-08-25 00:09:06.510 ,6,0,0.,12.0,0.,12.0,0.,12.0,0.,12.0
1981-08-25 00:09:18.510 ,6,0,0.,12.0,0.,12.0,0.,12.0,0.,12.0
1981-08-25 00:09:30.510 ,6,0,0.,12.0,0.,12.0,0.,12.0,0.,12.0
1981-08-25 00:09:42.510 ,5,0,0.,12.0,0.,12.0,0.,12.0,0.,12.0
1981-08-25 00:09:54.510 ,5,0,0.,12.0,0.,12.0,0.,12.0,0.,12.0
1981-08-25 00:10:06.510 ,0,0,0.,12.0,0.,12.0,0.,12.0,0.,12.0
1981-08-25 00:10:18.510 ,0,0,0.,12.0,0.,12.0,0.,12.0,0.,12.0
1981-08-25 00:11:06.510 ,0,0,,0,,0,,0,,0
1981-08-25 00:11:18.510 ,0,0,0.,12.0,0.,12.0,0.,12.0,0.,12.0
1981-08-25 00:11:18.510 ,3,0,0.,12.0,0.,12.0,0.,12.0,0.,12.0
1981-08-25 00:11:30.510 ,3,0,0.,12.0,0.,12.0,0.,12.0,0.,12.0
1981-08-25 00:11:42.510 ,3,0,0.,12.0,0.,12.0,0.,12.0,0.,12.0
1981-08-25 00:11:54.510 ,3,0,0.,12.0,0.,12.0,0.,12.0,0.,12.0
1981-08-25 00:12:06.510 ,2,0,0.,12.0,0.,12.0,0.,12.0,0.,12.0
1981-08-25 00:12:18.510 ,2,0,0.,12.0,0.,12.0,0.,12.0,0.,12.0
1981-08-25 00:12:30.510 ,2,0,0.,12.0,0.,12.0,0.,12.0,0.,12.0
1981-08-25 00:12:42.510 ,2,0,0.,12.0,0.,12.0,0.,12.0,0.,12.0
1981-08-25 00:12:54.510 ,1,0,0.,12.0,0.,12.0,0.,12.0,0.,12.0
1981-08-25 00:13:06.510 ,1,0,0.,12.0,0.,12.0,0.,12.0,0.,12.0
1981-08-25 00:13:18.510 ,1,0,0.,12.0,0.,12.0,0.,12.0,0.,12.0
1981-08-25 00:13:30.510 ,1,0,0.,12.0,0.,12.0,0.,12.0,0.,12.0
1981-08-25 00:13:42.510 ,0,0,0.,12.0,0.,12.0,0.,12.0,0.,12.0
1981-08-25 00:13:54.510 ,0,0,0.,12.0,0.,12.0,0.,12.0,0.,12.0
1981-08-25 00:14:06.510 ,0,0,0.,12.0,0.,12.0,0.,12.0,0.,12.0
1981-08-25 00:14:18.510 ,0,0,0.,12.0,0.,12.0,0.,12.0,0.,12.0
1981-08-25 00:14:30.510 ,0,0,0.,12.0,0.,12.0,0.,12.0,0.,12.0
1981-08-25 00:14:42.510 ,0,0,0.,12.0,0.,12.0,0.,12.0,0.,12.0
1981-08-25 00:14:54.510 ,0,0,0.,12.0,0.,12.0,0.,12.0,0.,12.0
1981-08-25 00:15:06.510 ,0,0,0.,12.0,0.,12.0,0.,12.0,0.,12.0
1981-08-25 00:15:18.510 ,1,0,0.,12.0,0.,12.0,0.,12.0,0.,12.0
1981-08-25 00:15:30.510 ,1,0,0.,12.0,0.,12.0,0.,12.0,0.,12.0
1981-08-25 00:15:42.510 ,1,0,0.,12.0,0.,12.0,0.,12.0,0.,12.0
1981-08-25 00:15:54.510 ,1,0,0.,12.0,0.,12.0,0.,12.0,0.,12.0
1981-08-25 00:16:06.510 ,2,0,0.,12.0,0.,12.0,0.,12.0,0.,12.0
1981-08-25 00:16:18.510 ,2,0,0.,12.0,0.,12.0,0.,12.0,0.,12.0
1981-08-25 00:16:30.510 ,2,0,0.,12.0,0.,12.0,0.,12.0,0.,12.0
1981-08-25 00:16:42.510 ,2,0,0.,12.0,0.,12.0,0.,12.0,0.,12.0
1981-08-25 00:16:54.510 ,3,0,0.,12.0,0.,12.0,0.,12.0,0.,12.0
1981-08-25 00:17:06.510 ,3,0,0.,12.0,0.,12.0,0.,12.0,0.,12.0
1981-08-25 00:17:18.510 ,3,0,0.,12.0,0.,12.0,0.,12.0,0.,12.0
1981-08-25 00:17:30.510 ,3,0,0.,12.0,0.,12.0,0.,12.0,0.,12.0
1981-08-25 00:17:42.510 ,4,0,0.,12.0,0.,12.0,0.,12.0,0.,12.0
1981-08-25 00:17:54.510 ,4,0,0.,12.0,0.,12.0,0.,12.0,0.,12.0
1981-08-25 00:18:06.510 ,4,0,0.,12.0,0.,12.0,0.,12.0,0.,12.0
1981-08-25 00:18:18.510 ,4,0,1.,12.0,0.,12.0,0.,12.0,0.,12.0
1981-08-25 00:18:30.510 ,5,0,0.,12.0,0.,12.0,0.,12.0,0.,12.0
1981-08-25 00:18:42.510 ,5,0,0.,12.0,0.,12.0,0.,12.0,0.,12.0
1981-08-25 00:18:54.510 ,5,0,0.,12.0,0.,12.0,0.,12.0,0.,12.0
1981-08-25 00:19:06.510 ,5,0,0.,12.0,0.,12.0,0.,12.0,0.,12.0
1981-08-25 00:19:18.510 ,6,0,0.,12.0,0.,12.0,0.,12.0,0.,12.0
1981-08-25 00:19:30.510 ,6,0,0.,12.0,0.,12.0,0.,12.0,0.,12.0
1981-08-25 00:19:42.510 ,6,0,0.,12.0,0.,12.0,0.,12.0,0.,12.0
1981-08-25 00:19:54.510 ,6,0,,0,,0,,0,,0
1981-08-25 00:20:06.510 ,7,0,0.,12.0,0.,12.0,0.,12.0,0.,12.0
1981-08-25 00:20:18.510 ,7,0,0.,12.0,0.,12.0,0.,12.0,0.,12.0
1981-08-25 00:20:30.510 ,7,0,0.,12.0,0.,12.0,0.,12.0,0.,12.0
1981-08-25 00:20:42.510 ,7,0,0.,12.0,0.,12.0,0.,12.0,0.,12.0
1981-08-25 00:20:54.510 ,7,0,0.,12.0,0.,12.0,0.,12.0,0.,12.0
1981-08-25 00:21:06.510 ,7,0,0.,12.0,0.,12.0,0.,12.0,0.,12.0
1981-08-25 00:21:18.510 ,7,0,0.,12.0,0.,12.0,0.,12.0,0.,12.0
1981-08-25 00:21:30.510 ,7,0,0.,12.0,0.,12.0,0.,12.0,0.,12.0
1981-08-25 00:21:42.510 ,6,0,0.,12.0,0.,12.0,0.,12.0,0.,12.0
1981-08-25 00:21:54.510 ,6,0,0.,12.0,0.,12.0,0.,12.0,0.,12.0
1981-08-25 00:22:06.510 ,6,0,0.,12.0,0.,12.0,0.,12.0,0.,12.0
1981-08-25 00:22:18.510 ,6,0,0.,12.0,0.,12.0,0.,12.0,0.,12.0
1981-08-25 00:22:30.510 ,5,0,0.,12.0,0.,12.0,0.,12.0,0.,12.0
1981-08-25 00:22:42.510 ,5,0,0.,12.0,0.,12.0,0.,12.0,0.,12.0
1981-08-25 00:22:54.510 ,5,0,0.,12.0,0.,12.0,0.,12.0,0.,12.0
1981-08-25 00:23:06.510 ,5,0,0.,12.0,0.,12.0,0.,12.0,0.,12.0
1981-08-25 00:23:18.510 ,4,0,0.,12.0,0.,12.0,0.,12.0,0.,12.0
1981-08-25 00:23:30.510 ,4,0,0.,12.0,0.,12.0,0.,12.0,0.,12.0
1981-08-25 00:23:42.510 ,4,0,0.,12.0,0.,12.0,0.,12.0,0.,12.0
1981-08-25 00:23:54.510 ,4,0,0.,12.0,0.,12.0,0.,12.0,0.,12.0
1981-08-25 00:24:06.510 ,3,0,0.,12.0,0.,12.0,0.,12.0,0.,12.0
1981-08-25 00:24:18.510 ,3,0,0.,12.0,0.,12.0,0.,12.0,0.,12.0
1981-08-25 00:24:30.510 ,3,0,0.,12.0,0.,12.0,0.,12.0,0.,12.0
1981-08-25 00:24:42.510 ,3,0,0.,12.0,0.,12.0,0.,12.0,0.,12.0
1981-08-25 00:24:54.510 ,2,0,0.,12.0,0.,12.0,0.,12.0,0.,12.0
1981-08-25 00:25:06.510 ,2,0,0.,12.0,0.,12.0,0.,12.0,0.,12.0
1981-08-25 00:25:18.510 ,2,0,0.,12.0,0.,12.0,0.,12.0,0.,12.0
1981-08-25 00:25:30.510 ,2,0,0.,12.0,0.,12.0,0.,12.0,0.,12.0
1981-08-25 00:25:42.510 ,1,0,0.,12.0,0.,12.0,0.,12.0,0.,12.0
1981-08-25 00:25:54.510 ,1,0,0.,12.0,0.,12.0,0.,12.0,0.,12.0
1981-08-25 00:26:06.510 ,1,0,0.,12.0,0.,12.0,0.,12.0,0.,12.0
1981-08-25 00:26:18.510 ,1,0,0.,12.0,0.,12.0,0.,12.0,0.,12.0
1981-08-25 00:26:30.510 ,0,0,0.,12.0,0.,12.0,0.,12.0,0.,12.0
1981-08-25 00:26:42.510 ,0,0,0.,12.0,0.,12.0,0.,12.0,0.,12.0
1981-08-25 00:26:54.510 ,0,0,0.,12.0,0.,12.0,0.,12.0,0.,12.0
1981-08-25 00:27:06.510 ,0,0,0.,12.0,0.,12.0,0.,12.0,0.,12.0
1981-08-25 00:27:18.510 ,0,0,0.,12.0,0.,12.0,0.,12.0,0.,12.0
1981-08-25 00:27:30.510 ,0,0,0.,12.0,0.,12.0,0.,12.0,0.,12.0
1981-08-25 00:27:42.510 ,0,0,0.,12.0,0.,12.0,0.,12.0,0.,12.0
1981-08-25 00:27:54.510 ,0,0,0.,12.0,0.,12.0,0.,12.0,0.,12.0
1981-08-25 00:28:06.510 ,1,0,0.,12.0,0.,12.0,0.,12.0,0.,12.0
1981-08-25 00:28:18.510 ,1,0,0.,12.0,0.,12.0,0.,12.0,0.,12.0
1981-08-25 00:28:30.510 ,1,0,0.,12.0,0.,12.0,0.,12.0,0.,12.0
1981-08-25 00:28:42.510 ,1,0,0.,12.0,0.,12.0,0.,12.0,0.,12.0
1981-08-25 00:28:54.510 ,2,0,0.,12.0,0.,12.0,0.,12.0,0.,12.0
1981-08-25 00:29:06.510 ,2,0,0.,12.0,0.,12.0,0.,12.0,0.,12.0
1981-08-25 00:29:18.510 ,2,0,0.,12.0,0.,12.0,0.,12.0,0.,12.0
1981-08-25 00:29:30.510 ,2,0,0.,12.0,0.,12.0,0.,12.0,0.,12.0
1981-08-25 00:29:42.510 ,3,0,0.,12.0,0.,12.0,0.,12.0,0.,12.0
1981-08-25 00:29:54.510 ,3,0,0.,12.0,0.,12.0,0.,12.0,0.,12.0
1981-08-25 00:30:06.510 ,3,0,0.,12.0,0.,12.0,0.,12.0,0.,12.0
1981-08-25 00:30:18.510 ,3,0,0.,12.0,0.,12.0,0.,12.0,0.,12.0
1981-08-25 00:30:30.510 ,4,0,0.,12.0,0.,12.0,0.,12.0,0.,12.0
1981-08-25 00:30:42.510 ,4,0,0.,12.0,0.,12.0,0.,12.0,0.,12.0
1981-08-25 00:30:54.510 ,4,0,0.,12.0,0.,12.0,0.,12.0,0.,12.0
1981-08-25 00:31:06.510 ,4,0,0.,12.0,0.,12.0,0.,12.0,0.,12.0
1981-08-25 00:31:18.510 ,5,0,0.,12.0,0.,12.0,0.,12.0,0.,12.0
1981-08-25 00:31:30.510 ,5,0,0.,12.0,0.,12.0,0.,12.0,0.,12.0
1981-08-25 00:31:42.510 ,5,0,0.,12.0,0.,12.0,0.,12.0,0.,12.0
1981-08-25 00:31:54.510 ,5,0,0.,12.0,0.,12.0,0.,12.0,0.,12.0
1981-08-25 00:32:06.510 ,6,0,0.,12.0,0.,12.0,0.,12.0,0.,12.0
1981-08-25 00:32:18.510 ,6,0,0.,12.0,0.,12.0,0.,12.0,0.,12.0
1981-08-25 00:32:30.510 ,0,0,0.,12.0,0.,12.0,0.,12.0,0.,12.0
1981-08-25 00:32:42.510 ,0,0,,0,,0,,0,,0
1981-08-25 00:32:41.310 ,0,0,,0,,0,,0,,0
1981-08-25 00:32:53.310 ,0,0,,0,,0,,0,,0
1981-08-25 00:32:41.910 ,0,0,,0,,0,,0,,0
1981-08-25 00:32:53.910 ,0,0,0.,12.0,0.,12.0,0.,12.0,0.,12.0
1981-08-25 00:32:54.510 ,7,0,0.,12.0,0.,12.0,0.,12.0,0.,12.0
1981-08-25 00:33:06.510 ,7,0,0.,12.0,0.,12.0,0.,12.0,0.,12.0
1981-08-25 00:33:18.510 ,7,0,0.,12.0,0.,12.0,0.,12.0,0.,12.0
1981-08-25 00:33:30.510 ,7,0,0.,12.0,0.,12.0,0.,12.0,0.,12.0
1981-08-25 00:33:42.510 ,7,0,0.,12.0,0.,12.0,0.,12.0,0.,12.0
1981-08-25 00:33:54.510 ,7,0,0.,12.0,0.,12.0,0.,12.0,0.,12.0
1981-08-25 00:34:06.510 ,7,0,0.,12.0,0.,12.0,0.,12.0,0.,12.0
1981-08-25 00:34:18.510 ,7,0,0.,12.0,0.,12.0,0.,12.0,0.,12.0
1981-08-25 00:34:30.510 ,6,0,0.,12.0,0.,12.0,0.,12.0,0.,12.0
1981-08-25 00:34:42.510 ,6,0,0.,12.0,0.,12.0,0.,12.0,0.,12.0
1981-08-25 00:34:54.510 ,6,0,0.,12.0,0.,12.0,0.,12.0,0.,12.0
1981-08-25 00:35:06.510 ,6,0,0.,12.0,0.,12.0,0.,12.0,0.,12.0
1981-08-25 00:35:18.510 ,5,0,0.,12.0,0.,12.0,0.,12.0,0.,12.0
1981-08-25 00:35:30.510 ,5,0,0.,12.0,0.,12.0,0.,12.0,0.,12.0
1981-08-25 00:35:42.510 ,5,0,0.,12.0,0.,12.0,0.,12.0,0.,12.0
1981-08-25 00:35:54.510 ,5,0,0.,12.0,0.,12.0,0.,12.0,0.,12.0
1981-08-25 00:36:06.510 ,4,0,0.,12.0,0.,12.0,0.,12.0,0.,12.0
1981-08-25 00:36:18.510 ,4,0,0.,12.0,0.,12.0,0.,12.0,0.,12.0
1981-08-25 00:36:30.510 ,4,0,0.,12.0,0.,12.0,0.,12.0,0.,12.0
1981-08-25 00:36:42.510 ,4,0,0.,12.0,0.,12.0,0.,12.0,0.,12.0
1981-08-25 00:36:54.510 ,3,0,0.,12.0,0.,12.0,0.,12.0,0.,12.0
1981-08-25 00:37:06.510 ,3,0,0.,12.0,0.,12.0,0.,12.0,0.,12.0
1981-08-25 00:37:18.510 ,3,0,0.,12.0,0.,12.0,0.,12.0,0.,12.0
1981-08-25 00:37:30.510 ,3,0,0.,12.0,0.,12.0,0.,12.0,0.,12.0
1981-08-25 00:37:42.510 ,2,0,0.,12.0,0.,12.0,0.,12.0,0.,12.0
1981-08-25 00:37:54.510 ,2,0,0.,12.0,0.,12.0,0.,12.0,0.,12.0
1981-08-25 00:38:06.510 ,2,0,0.,12.0,0.,12.0,0.,12.0,0.,12.0
1981-08-25 00:38:18.510 ,2,0,0.,12.0,0.,12.0,0.,12.0,0.,12.0
1981-08-25 00:38:30.510 ,1,0,0.,12.0,0.,12.0,0.,12.0,0.,12.0
1981-08-25 00:38:42.510 ,1,0,0.,12.0,0.,12.0,0.,12.0,0.,12.0
1981-08-25 00:38:54.510 ,1,0,0.,12.0,0.,12.0,0.,12.0,0.,12.0
1981-08-25 00:39:06.510 ,1,0,0.,12.0,0.,12.0,0.,12.0,0.,12.0
1981-08-25 00:39:18.510 ,0,0,0.,12.0,0.,12.0,0.,12.0,0.,12.0
1981-08-25 00:39:30.510 ,0,0,0.,12.0,0.,12.0,0.,12.0,0.,12.0
1981-08-25 00:39:42.510 ,0,0,0.,12.0,0.,12.0,0.,12.0,0.,12.0
1981-08-25 00:39:54.510 ,0,0,0.,12.0,0.,12.0,0.,12.0,0.,12.0
1981-08-25 00:40:06.510 ,0,0,0.,12.0,0.,12.0,0.,12.0,0.,12.0
1981-08-25 00:40:18.510 ,0,0,0.,12.0,0.,12.0,0.,12.0,0.,12.0
1981-08-25 00:40:30.510 ,0,0,0.,12.0,0.,12.0,0.,12.0,0.,12.0
1981-08-25 00:40:42.510 ,0,0,0.,12.0,0.,12.0,0.,12.0,0.,12.0
1981-08-25 00:40:54.510 ,1,0,0.,12.0,0.,12.0,0.,12.0,0.,12.0
1981-08-25 00:41:06.510 ,1,0,0.,12.0,0.,12.0,0.,12.0,0.,12.0
1981-08-25 00:41:18.510 ,1,0,0.,12.0,0.,12.0,0.,12.0,0.,12.0
1981-08-25 00:41:30.510 ,1,0,0.,12.0,0.,12.0,0.,12.0,0.,12.0
1981-08-25 00:41:42.510 ,2,0,0.,12.0,0.,12.0,0.,12.0,0.,12.0
1981-08-25 00:41:54.510 ,2,0,0.,12.0,0.,12.0,0.,12.0,0.,12.0
1981-08-25 00:42:06.510 ,2,0,1.,12.0,0.,12.0,0.,12.0,0.,12.0
1981-08-25 00:42:18.510 ,2,0,0.,12.0,0.,12.0,0.,12.0,0.,12.0
1981-08-25 00:42:30.510 ,3,0,0.,12.0,0.,12.0,0.,12.0,0.,12.0
1981-08-25 00:42:42.510 ,3,0,0.,12.0,0.,12.0,0.,12.0,0.,12.0
1981-08-25 00:42:54.510 ,3,0,0.,12.0,0.,12.0,0.,12.0,0.,12.0
1981-08-25 00:43:06.510 ,3,0,0.,12.0,0.,12.0,0.,12.0,0.,12.0
1981-08-25 00:43:18.510 ,4,0,0.,12.0,0.,12.0,0.,12.0,0.,12.0
1981-08-25 00:43:30.510 ,4,0,0.,12.0,0.,12.0,0.,12.0,0.,12.0
1981-08-25 00:43:42.510 ,4,0,0.,12.0,0.,12.0,0.,12.0,0.,12.0
1981-08-25 00:43:54.510 ,4,0,0.,12.0,0.,12.0,0.,12.0,0.,12.0
1981-08-25 00:44:06.510 ,5,0,0.,12.0,0.,12.0,0.,12.0,0.,12.0
1981-08-25 00:44:18.510 ,5,0,0.,12.0,0.,12.0,0.,12.0,0.,12.0
1981-08-25 00:44:30.510 ,5,0,0.,12.0,0.,12.0,0.,12.0,0.,12.0
1981-08-25 00:44:42.510 ,5,0,0.,12.0,0.,12.0,0.,12.0,0.,12.0
1981-08-25 00:44:54.510 ,6,0,0.,12.0,0.,12.0,0.,12.0,0.,12.0
1981-08-25 00:45:06.510 ,6,0,0.,12.0,0.,12.0,0.,12.0,0.,12.0
1981-08-25 00:45:18.510 ,6,0,0.,12.0,0.,12.0,0.,12.0,0.,12.0
1981-08-25 00:45:30.510 ,6,0,0.,12.0,0.,12.0,0.,12.0,0.,12.0
1981-08-25 00:45:42.510 ,7,0,0.,12.0,0.,12.0,0.,12.0,0.,12.0
1981-08-25 00:45:54.510 ,7,0,0.,12.0,0.,12.0,0.,12.0,0.,12.0
1981-08-25 00:46:06.510 ,7,0,0.,12.0,0.,12.0,0.,12.0,0.,12.0
1981-08-25 00:46:18.510 ,7,0,0.,12.0,0.,12.0,0.,12.0,0.,12.0
1981-08-25 00:46:30.510 ,7,0,0.,12.0,0.,12.0,0.,12.0,0.,12.0
1981-08-25 00:46:42.510 ,7,0,0.,12.0,0.,12.0,0.,12.0,0.,12.0
1981-08-25 00:46:54.510 ,7,0,0.,12.0,0.,12.0,0.,12.0,0.,12.0
1981-08-25 00:47:06.510 ,7,0,0.,12.0,0.,12.0,0.,12.0,0.,12.0
1981-08-25 00:47:18.510 ,6,0,0.,12.0,0.,12.0,0.,12.0,0.,12.0
1981-08-25 00:47:30.510 ,6,0,0.,12.0,0.,12.0,0.,12.0,0.,12.0
1981-08-25 00:47:42.510 ,6,0,0.,12.0,0.,12.0,0.,12.0,0.,12.0
1981-08-25 00:47:54.510 ,6,0,0.,12.0,0.,12.0,0.,12.0,0.,12.0
1981-08-25 00:48:06.510 ,5,0,0.,12.0,0.,12.0,0.,12.0,0.,12.0
1981-08-25 00:48:18.510 ,5,0,0.,12.0,0.,12.0,0.,12.0,0.,12.0
1981-08-25 00:48:30.510 ,5,0,0.,12.0,0.,12.0,0.,12.0,0.,12.0
1981-08-25 00:48:42.510 ,5,0,0.,12.0,0.,12.0,0.,12.0,0.,12.0
1981-08-25 00:48:54.510 ,4,0,0.,12.0,0.,12.0,0.,12.0,0.,12.0
1981-08-25 00:49:06.510 ,4,0,0.,12.0,0.,12.0,0.,12.0,0.,12.0
1981-08-25 00:49:18.510 ,4,0,0.,12.0,0.,12.0,0.,12.0,0.,12.0
1981-08-25 00:49:30.510 ,4,0,0.,12.0,0.,12.0,0.,12.0,0.,12.0
1981-08-25 00:49:42.510 ,3,0,0.,12.0,0.,12.0,0.,12.0,0.,12.0
1981-08-25 00:49:54.510 ,3,0,0.,12.0,0.,12.0,0.,12.0,0.,12.0
1981-08-25 00:50:06.510 ,3,0,0.,12.0,0.,12.0,0.,12.0,0.,12.0
1981-08-25 00:50:18.510 ,3,0,0.,12.0,0.,12.0,0.,12.0,0.,12.0
1981-08-25 00:50:30.510 ,2,0,0.,12.0,0.,12.0,0.,12.0,0.,12.0
1981-08-25 00:50:42.510 ,2,0,0.,12.0,0.,12.0,0.,12.0,0.,12.0
1981-08-25 00:50:54.510 ,2,0,0.,12.0,0.,12.0,0.,12.0,0.,12.0
1981-08-25 00:51:06.510 ,2,0,0.,12.0,0.,12.0,0.,12.0,0.,12.0
1981-08-25 00:51:18.510 ,1,0,0.,12.0,0.,12.0,0.,12.0,0.,12.0
1981-08-25 00:51:30.510 ,1,0,0.,12.0,0.,12.0,0.,12.0,0.,12.0
1981-08-25 00:51:42.510 ,1,0,0.,12.0,0.,12.0,0.,12.0,0.,12.0
1981-08-25 00:51:54.510 ,1,0,0.,12.0,0.,12.0,0.,12.0,0.,12.0
1981-08-25 00:52:06.510 ,0,0,0.,12.0,0.,12.0,0.,12.0,0.,12.0
1981-08-25 00:52:18.510 ,0,0,0.,12.0,0.,12.0,0.,12.0,0.,12.0
1981-08-25 00:52:30.510 ,0,0,0.,12.0,0.,12.0,0.,12.0,0.,12.0
1981-08-25 00:52:42.510 ,0,0,0.,12.0,0.,12.0,0.,12.0,0.,12.0
1981-08-25 00:52:54.510 ,0,0,0.,12.0,0.,12.0,0.,12.0,0.,12.0
1981-08-25 00:53:06.510 ,0,0,0.,12.0,0.,12.0,0.,12.0,0.,12.0
1981-08-25 00:53:18.510 ,0,0,0.,12.0,0.,12.0,0.,12.0,0.,12.0
1981-08-25 00:53:30.510 ,0,0,0.,12.0,0.,12.0,0.,12.0,0.,12.0
1981-08-25 00:53:42.510 ,1,0,0.,12.0,0.,12.0,0.,12.0,0.,12.0
1981-08-25 00:53:54.510 ,1,0,0.,12.0,0.,12.0,0.,12.0,0.,12.0
1981-08-25 00:54:06.510 ,1,0,0.,12.0,0.,12.0,0.,12.0,0.,12.0
1981-08-25 00:54:18.510 ,1,0,0.,12.0,0.,12.0,0.,12.0,0.,12.0
1981-08-25 00:54:30.510 ,2,0,0.,12.0,0.,12.0,0.,12.0,0.,12.0
1981-08-25 00:54:42.510 ,2,0,0.,12.0,0.,12.0,0.,12.0,0.,12.0
1981-08-25 00:54:54.510 ,2,0,0.,12.0,0.,12.0,0.,12.0,0.,12.0
1981-08-25 00:55:06.510 ,2,0,0.,12.0,0.,12.0,0.,12.0,0.,12.0
1981-08-25 00:55:18.510 ,3,0,0.,12.0,0.,12.0,0.,12.0,0.,12.0
1981-08-25 00:55:30.510 ,3,0,0.,12.0,0.,12.0,0.,12.0,0.,12.0
1981-08-25 00:55:42.510 ,3,0,0.,12.0,0.,12.0,0.,12.0,0.,12.0
1981-08-25 00:55:54.510 ,3,0,0.,12.0,0.,12.0,0.,12.0,0.,12.0
1981-08-25 00:56:06.510 ,4,0,0.,12.0,0.,12.0,0.,12.0,0.,12.0
1981-08-25 00:56:18.510 ,4,0,0.,12.0,0.,12.0,0.,12.0,0.,12.0
1981-08-25 00:56:30.510 ,4,0,0.,12.0,0.,12.0,0.,12.0,0.,12.0
1981-08-25 00:56:42.510 ,4,0,0.,12.0,0.,12.0,0.,12.0,0.,12.0
1981-08-25 00:56:54.510 ,5,0,0.,12.0,0.,12.0,0.,12.0,0.,12.0
1981-08-25 00:57:06.510 ,5,0,0.,12.0,0.,12.0,0.,12.0,0.,12.0
1981-08-25 00:57:18.510 ,5,0,0.,12.0,0.,12.0,0.,12.0,0.,12.0
1981-08-25 00:57:30.510 ,5,0,0.,12.0,0.,12.0,0.,12.0,0.,12.0
1981-08-25 00:57:42.510 ,6,0,0.,12.0,0.,12.0,0.,12.0,0.,12.0
1981-08-25 00:57:54.510 ,6,0,0.,12.0,0.,12.0,0.,12.0,0.,12.0
1981-08-25 00:58:06.510 ,6,0,0.,12.0,0.,12.0,0.,12.0,0.,12.0
1981-08-25 00:58:18.510 ,6,0,0.,12.0,0.,12.0,0.,12.0,0.,12.0
1981-08-25 00:58:30.510 ,7,0,0.,12.0,0.,12.0,0.,12.0,0.,12.0
1981-08-25 00:58:42.510 ,7,0,0.,12.0,0.,12.0,0.,12.0,0.,12.0
1981-08-25 00:58:54.510 ,7,0,0.,12.0,0.,12.0,0.,12.0,0.,12.0
1981-08-25 00:59:06.510 ,7,0,0.,12.0,0.,12.0,0.,12.0,0.,12.0
1981-08-25 00:59:18.510 ,7,0,0.,12.0,0.,12.0,0.,12.0,0.,12.0
1981-08-25 00:59:30.510 ,7,0,0.,12.0,0.,12.0,0.,12.0,0.,12.0
1981-08-25 00:59:42.510 ,7,0,0.,12.0,0.,12.0,0.,12.0,0.,12.0
1981-08-25 00:59:54.510 ,7,0,0.,12.0,0.,12.0,0.,12.0,0.,12.0
1981-08-25 01:00:06.510 ,6,0,0.,12.0,0.,12.0,0.,12.0,0.,12.0
1981-08-25 01:00:18.510 ,6,0,0.,12.0,0.,12.0,0.,12.0,0.,12.0
1981-08-25 01:00:30.510 ,6,0,0.,12.0,0.,12.0,0.,12.0,0.,12.0
1981-08-25 01:00:42.510 ,6,0,0.,12.0,0.,12.0,0.,12.0,0.,12.0
1981-08-25 01:00:54.510 ,5,0,0.,12.0,0.,12.0,0.,12.0,0.,12.0
1981-08-25 01:01:06.510 ,5,0,0.,12.0,0.,12.0,0.,12.0,0.,12.0
1981-08-25 01:01:18.510 ,5,0,0.,12.0,0.,12.0,0.,12.0,0.,12.0
1981-08-25 01:01:30.510 ,5,0,0.,12.0,0.,12.0,0.,12.0,0.,12.0
1981-08-25 01:01:42.510 ,4,0,0.,12.0,0.,12.0,0.,12.0,0.,12.0
1981-08-25 01:01:54.510 ,4,0,0.,12.0,0.,12.0,0.,12.0,0.,12.0
1981-08-25 01:02:06.510 ,4,0,0.,12.0,0.,12.0,0.,12.0,0.,12.0
1981-08-25 01:02:18.510 ,4,0,0.,12.0,0.,12.0,0.,12.0,0.,12.0
1981-08-25 01:02:30.510 ,3,0,0.,12.0,0.,12.0,0.,12.0,0.,12.0
1981-08-25 01:02:42.510 ,3,0,0.,12.0,0.,12.0,0.,12.0,0.,12.0
1981-08-25 01:02:54.510 ,3,0,0.,12.0,0.,12.0,0.,12.0,0.,12.0
1981-08-25 01:03:06.510 ,3,0,0.,12.0,0.,12.0,0.,12.0,0.,12.0
1981-08-25 01:03:18.510 ,2,0,0.,12.0,0.,12.0,0.,12.0,0.,12.0
1981-08-25 01:03:30.510 ,2,0,0.,12.0,0.,12.0,0.,12.0,0.,12.0
1981-08-25 01:03:42.510 ,2,0,0.,12.0,0.,12.0,0.,12.0,0.,12.0
1981-08-25 01:03:54.510 ,2,0,0.,12.0,0.,12.0,0.,12.0,0.,12.0
1981-08-25 01:04:06.510 ,1,0,0.,12.0,0.,12.0,0.,12.0,0.,12.0
1981-08-25 01:04:18.510 ,1,0,0.,12.0,0.,12.0,0.,12.0,0.,12.0
1981-08-25 01:04:30.510 ,1,0,0.,12.0,0.,12.0,0.,12.0,0.,12.0
1981-08-25 01:04:42.510 ,1,0,0.,12.0,0.,12.0,0.,12.0,0.,12.0
1981-08-25 01:04:54.510 ,0,0,0.,12.0,0.,12.0,0.,12.0,0.,12.0
1981-08-25 01:05:06.510 ,0,0,0.,12.0,0.,12.0,0.,12.0,0.,12.0
1981-08-25 01:05:18.510 ,0,0,0.,12.0,0.,12.0,0.,12.0,0.,12.0
1981-08-25 01:05:30.510 ,0,0,0.,12.0,0.,12.0,0.,12.0,0.,12.0
1981-08-25 01:05:42.510 ,0,0,0.,12.0,0.,12.0,0.,12.0,0.,12.0
1981-08-25 01:05:54.510 ,0,0,0.,12.0,0.,12.0,0.,12.0,0.,12.0
1981-08-25 01:06:06.510 ,0,0,0.,12.0,0.,12.0,0.,12.0,0.,12.0
1981-08-25 01:06:18.510 ,0,0,0.,12.0,0.,12.0,0.,12.0,0.,12.0
1981-08-25 01:06:30.510 ,1,0,0.,12.0,0.,12.0,0.,12.0,0.,12.0
1981-08-25 01:06:42.510 ,1,0,0.,12.0,0.,12.0,0.,12.0,0.,12.0
1981-08-25 01:06:54.510 ,1,0,0.,12.0,0.,12.0,0.,12.0,0.,12.0
1981-08-25 01:07:06.510 ,1,0,0.,12.0,0.,12.0,0.,12.0,0.,12.0
1981-08-25 01:07:18.510 ,2,0,0.,12.0,0.,12.0,0.,12.0,0.,12.0
1981-08-25 01:07:30.510 ,2,0,0.,12.0,0.,12.0,0.,12.0,0.,12.0
1981-08-25 01:07:42.510 ,2,0,0.,12.0,0.,12.0,0.,12.0,0.,12.0
1981-08-25 01:07:54.510 ,2,0,0.,12.0,0.,12.0,0.,12.0,0.,12.0
1981-08-25 01:08:06.510 ,3,0,0.,12.0,0.,12.0,0.,12.0,0.,12.0
1981-08-25 01:08:18.510 ,3,0,0.,12.0,0.,12.0,0.,12.0,0.,12.0
1981-08-25 01:08:30.510 ,3,0,0.,12.0,0.,12.0,0.,12.0,0.,12.0
1981-08-25 01:08:42.510 ,3,0,0.,12.0,0.,12.0,0.,12.0,0.,12.0
1981-08-25 01:08:54.510 ,4,0,0.,12.0,0.,12.0,0.,12.0,0.,12.0
1981-08-25 01:09:06.510 ,4,0,0.,12.0,0.,12.0,0.,12.0,0.,12.0
1981-08-25 01:09:18.510 ,4,0,0.,12.0,0.,12.0,0.,12.0,0.,12.0
1981-08-25 01:09:30.510 ,4,0,0.,12.0,0.,12.0,0.,12.0,0.,12.0
1981-08-25 01:09:42.510 ,5,0,0.,12.0,0.,12.0,0.,12.0,0.,12.0
1981-08-25 01:09:54.510 ,5,0,0.,12.0,0.,12.0,0.,12.0,0.,12.0
1981-08-25 01:10:06.510 ,5,0,0.,12.0,0.,12.0,0.,12.0,0.,12.0
1981-08-25 01:10:18.510 ,5,0,0.,12.0,0.,12.0,0.,12.0,0.,12.0
1981-08-25 01:10:30.510 ,6,0,0.,12.0,0.,12.0,0.,12.0,0.,12.0
1981-08-25 01:10:42.510 ,6,0,0.,12.0,0.,12.0,0.,12.0,0.,12.0
1981-08-25 01:10:54.510 ,6,0,0.,12.0,0.,12.0,0.,12.0,0.,12.0
1981-08-25 01:11:06.510 ,6,0,0.,12.0,0.,12.0,0.,12.0,0.,12.0
1981-08-25 01:11:18.510 ,7,0,0.,12.0,0.,12.0,0.,12.0,0.,12.0
1981-08-25 01:11:30.510 ,7,0,0.,12.0,0.,12.0,0.,12.0,0.,12.0
1981-08-25 01:11:42.510 ,7,0,0.,12.0,0.,12.0,0.,12.0,0.,12.0
1981-08-25 01:11:54.510 ,7,0,0.,12.0,0.,12.0,0.,12.0,0.,12.0
1981-08-25 01:12:06.510 ,7,0,0.,12.0,0.,12.0,0.,12.0,0.,12.0
1981-08-25 01:12:18.510 ,7,0,0.,12.0,0.,12.0,0.,12.0,0.,12.0
1981-08-25 01:12:30.510 ,7,0,0.,12.0,0.,12.0,0.,12.0,0.,12.0
1981-08-25 01:12:42.510 ,7,0,0.,12.0,0.,12.0,0.,12.0,0.,12.0
1981-08-25 01:12:54.510 ,6,0,0.,12.0,0.,12.0,0.,12.0,0.,12.0
1981-08-25 01:13:06.510 ,6,0,0.,12.0,0.,12.0,0.,12.0,0.,12.0
1981-08-25 01:13:18.510 ,6,0,0.,12.0,0.,12.0,0.,12.0,0.,12.0
1981-08-25 01:13:30.510 ,6,0,0.,12.0,0.,12.0,0.,12.0,0.,12.0
1981-08-25 01:13:42.510 ,5,0,0.,12.0,0.,12.0,0.,12.0,0.,12.0
1981-08-25 01:13:54.510 ,5,0,0.,12.0,0.,12.0,0.,12.0,0.,12.0
1981-08-25 01:14:06.510 ,5,0,0.,12.0,0.,12.0,0.,12.0,0.,12.0
1981-08-25 01:14:18.510 ,5,0,0.,12.0,0.,12.0,0.,12.0,0.,12.0
1981-08-25 01:14:30.510 ,4,0,0.,12.0,0.,12.0,0.,12.0,0.,12.0
1981-08-25 01:14:42.510 ,4,0,0.,12.0,0.,12.0,0.,12.0,0.,12.0
1981-08-25 01:14:54.510 ,4,0,0.,12.0,0.,12.0,0.,12.0,0.,12.0
1981-08-25 01:15:06.510 ,4,0,0.,12.0,0.,12.0,0.,12.0,0.,12.0
1981-08-25 01:15:18.510 ,3,0,0.,12.0,0.,12.0,0.,12.0,0.,12.0
1981-08-25 01:15:30.510 ,3,0,0.,12.0,0.,12.0,0.,12.0,0.,12.0
1981-08-25 01:15:42.510 ,3,0,0.,12.0,0.,12.0,0.,12.0,0.,12.0
1981-08-25 01:15:54.510 ,3,0,0.,12.0,0.,12.0,0.,12.0,0.,12.0
1981-08-25 01:16:06.510 ,2,0,0.,12.0,0.,12.0,0.,12.0,0.,12.0
1981-08-25 01:16:18.510 ,2,0,0.,12.0,0.,12.0,0.,12.0,0.,12.0
1981-08-25 01:16:30.510 ,2,0,0.,12.0,0.,12.0,0.,12.0,0.,12.0
1981-08-25 01:16:42.510 ,2,0,0.,12.0,0.,12.0,0.,12.0,0.,12.0
1981-08-25 01:16:54.510 ,1,0,0.,12.0,0.,12.0,0.,12.0,0.,12.0
1981-08-25 01:17:06.510 ,1,0,0.,12.0,0.,12.0,0.,12.0,0.,12.0
1981-08-25 01:17:18.510 ,1,0,0.,12.0,0.,12.0,0.,12.0,0.,12.0
1981-08-25 01:17:30.510 ,1,0,0.,12.0,0.,12.0,0.,12.0,0.,12.0